Grand Island, NE

6:24 PM CDT on October 21, 2019 (GMT -0500)
Central Nebraska Regional

Weather History for KGRI - September, 2019

Change the Weather History Date:

Tuesday, September 17, 2019

  Actual Average Record
Temperature  
Mean Temperature 82 °F 65 °F  
Max Temperature 92 °F 78 °F 98 °F (1983)
Min Temperature 72 °F 52 °F 28 °F (1903)
Degree Days  
Heating Degree Days 0 4  
Month to date heating degree days 0 34  
Since 1 July heating degree days 1 44  
Cooling Degree Days 17 3  
Month to date cooling degree days 151 83  
Year to date cooling degree days 1072 997  
Growing Degree Days 32 (Base 50)    
Moisture  
Dew Point 64 °F    
Average Humidity 58    
Maximum Humidity 79    
Minimum Humidity 36    
Precipitation  
Precipitation 0.00 in 0.08 in 1.43 in (1959)
Month to date precipitation 0.54 1.30  
Year to date precipitation 34.12 22.07  
Snow  
Snow 0.00 in 0.00 in - ()
Month to date snowfall 0.0 0.0  
Since 1 July snowfall 0.0 0.0  
Since 1 September snowfall 0.0 0.0  
Snow Depth 0.00 in    
Sea Level Pressure  
Sea Level Pressure 29.84 in    
Wind  
Wind Speed 19 mph (South)    
Max Wind Speed 31 mph    
Max Gust Speed 44 mph    
Visibility 10 miles    
Events      
T = Trace of Precipitation, MM = Missing Value Source: NWS Daily Summary

Daily Weather History Graph

Daily Weather History Graph

Search for Another Location

Airport or City:

Astronomy

Sep. 17, 2019 Rise Set
Actual Time 7:15 AM CDT 7:39 PM CDT
Civil Twilight 6:48 AM CDT 8:06 PM CDT
Nautical Twilight 6:15 AM CDT 8:39 PM CDT
Astronomical Twilight 5:42 AM CDT 9:12 PM CDT
Moon 9:41 PM CDT (9/17) 10:22 AM CDT (9/17)
Length of Visible Light 13h 18m
Length of Day
12h 23m
Waning Gibbous, 89% of the Moon is Illuminated
Sep 17
Waning Gibbous
Sep 21
Last Quarter
Sep 28
New
Oct 5
First Quarter
Oct 13
Full

Hourly Weather History & Observations

Time (CDT) Temp. Heat Index Dew Point Humidity Pressure Visibility Wind Dir Wind Speed Gust Speed Precip Events Conditions
12:53 AM 78.1 °F - 64.9 °F 64% 29.88 in 10.0 mi South 18.4 mph 29.9 mph N/A   Clear
1:53 AM 77.0 °F - 64.9 °F 66% 29.89 in 10.0 mi South 17.3 mph 27.6 mph N/A   Clear
2:53 AM 75.0 °F - 66.0 °F 73% 29.89 in 10.0 mi South 16.1 mph 26.5 mph N/A   Clear
3:53 AM 75.0 °F - 66.0 °F 73% 29.88 in 10.0 mi South 16.1 mph 25.3 mph N/A   Clear
4:53 AM 73.9 °F - 66.0 °F 76% 29.88 in 10.0 mi South 16.1 mph - N/A   Clear
5:53 AM 73.0 °F - 66.0 °F 79% 29.88 in 10.0 mi South 13.8 mph 23.0 mph N/A   Clear
6:53 AM 73.0 °F - 66.0 °F 79% 29.90 in 10.0 mi South 15.0 mph - N/A   Clear
7:53 AM 73.0 °F - 66.0 °F 79% 29.91 in 10.0 mi South 15.0 mph - N/A   Clear
8:53 AM 75.9 °F - 64.9 °F 69% 29.90 in 10.0 mi South 17.3 mph - N/A   Clear
9:53 AM 80.1 °F 81.9 °F 64.9 °F 60% 29.89 in 10.0 mi South 17.3 mph 27.6 mph N/A   Clear
10:53 AM 84.0 °F 85.4 °F 64.0 °F 51% 29.88 in 10.0 mi South 19.6 mph 35.7 mph N/A   Clear
11:53 AM 87.1 °F 88.9 °F 64.9 °F 48% 29.86 in 10.0 mi South 20.7 mph 32.2 mph N/A   Clear
12:53 PM 88.0 °F 89.3 °F 64.0 °F 45% 29.84 in 10.0 mi South 23.0 mph 35.7 mph N/A   Clear
1:53 PM 91.0 °F 92.6 °F 64.0 °F 41% 29.82 in 10.0 mi South 24.2 mph 33.4 mph N/A   Clear
2:53 PM 91.0 °F 91.5 °F 62.1 °F 38% 29.79 in 10.0 mi South 25.3 mph 40.3 mph N/A   Clear
3:53 PM 91.0 °F 90.9 °F 61.0 °F 36% 29.78 in 10.0 mi South 27.6 mph 42.6 mph N/A   Clear
4:53 PM 90.0 °F 90.3 °F 62.1 °F 39% 29.78 in 10.0 mi South 23.0 mph 38.0 mph N/A   Clear
5:53 PM 89.1 °F 90.0 °F 63.0 °F 42% 29.77 in 10.0 mi South 23.0 mph 33.4 mph N/A   Mostly Cloudy
6:53 PM 86.0 °F 86.8 °F 63.0 °F 46% 29.77 in 10.0 mi South 19.6 mph 33.4 mph N/A   Clear
7:53 PM 82.0 °F 83.1 °F 63.0 °F 52% 29.78 in 10.0 mi SSE 16.1 mph 25.3 mph N/A   Clear
8:53 PM 80.1 °F 81.5 °F 63.0 °F 56% 29.80 in 10.0 mi SSE 16.1 mph 25.3 mph N/A   Clear
9:53 PM 80.1 °F 81.2 °F 62.1 °F 54% 29.80 in 10.0 mi SSE 17.3 mph 26.5 mph N/A   Clear
10:53 PM 78.1 °F - 63.0 °F 60% 29.80 in 10.0 mi SSE 20.7 mph 28.8 mph N/A   Clear
11:53 PM 75.9 °F - 64.0 °F 67% 29.80 in 10.0 mi SSE 17.3 mph 27.6 mph N/A   Clear